Temp
-10 -10 -10 -10 -10 -11 -11 -11 -10 -10 -10 -11 -11 -10 -10 -10 -10 -10 -10 -10 -10 -10 -10 -10 -10 -9 -9 -9 -9 -9 -9 -9 -9 -9 -8 -8 -8 -9 -9 -9 -9 -9 -9 -9 -9 -9 -9 -9 -9 -9 -9 -9 -9 -9 -9 -9 -9 -9 -9 -9 -8 -8 -8 -8 -7 -7 -7 -7 -7
-10 -10 -10 -10 -11 -11 -11 -11 -11 -11 -11 -11 -11 -10 -10 -10 -10 -10 -10 -10 -10 -10 -10 -10 -10 -10 -9 -9 -9 -9 -9 -9 -9 -9 -9 -9 -9 -9 -9 -9 -9 -9 -9 -9 -9 -9 -9 -9 -9 -9 -9 -9 -9 -9 -9 -9 -9 -9 -9 -8 -8 -8 -8 -8 -8 -7 -7 -7 -7
-10 -10 -10 -10 -11 -11 -11 -11 -11 -11 -11 -11 -10 -10 -10 -10 -10 -10 -10 -10 -10 -10 -10 -10 -10 -10 -9 -9 -9 -9 -9 -9 -9 -9 -9 -9 -9 -9 -9 -9 -9 -9 -9 -9 -9 -9 -9 -9 -9 -9 -9 -9 -9 -9 -9 -9 -9 -9 -9 -8 -8 -8 -8 -8 -8 -8 -8 -7 -7
-10 -10 -10 -10 -10 -11 -11 -11 -11 -11 -11 -11 -10 -10 -10 -10 -10 -10 -10 -10 -10 -10 -10 -10 -10 -10 -9 -9 -9 -9 -9 -9 -9 -9 -9 -9 -9 -9 -9 -9 -9 -9 -9 -9 -9 -9 -9 -9 -9 -9 -9 -9 -9 -9 -9 -9 -9 -9 -9 -8 -8 -8 -8 -8 -8 -8 -8 -8 -7
-10 -10 -10 -10 -10 -10 -10 -10 -10 -10 -10 -10 -10 -10 -10 -10 -10 -10 -10 -10 -10 -10 -10 -10 -10 -9 -9 -9 -9 -9 -9 -9 -9 -9 -9 -9 -9 -9 -9 -9 -9 -9 -9 -9 -9 -9 -9 -9 -9 -9 -9 -9 -9 -9 -9 -9 -9 -9 -9 -9 -9 -8 -8 -8 -8 -8 -8 -8 -8
-10 -10 -10 -10 -10 -10 -10 -10 -10 -10 -10 -10 -10 -10 -10 -10 -10 -10 -10 -10 -10 -10 -10 -10 -9 -9 -9 -9 -9 -9 -9 -9 -9 -9 -9 -9 -9 -9 -9 -9 -9 -9 -9 -9 -9 -9 -9 -9 -9 -9 -9 -9 -9 -9 -9 -9 -9 -9 -9 -9 -9 -9 -9 -9 -8 -8 -8 -8 -8
-10 -10 -10 -10 -10 -10 -10 -10 -10 -10 -10 -10 -10 -10 -10 -10 -10 -10 -10 -10 -10 -10 -10 -9 -9 -9 -9 -9 -9 -9 -9 -9 -9 -9 -9 -9 -9 -9 -9 -9 -9 -9 -9 -9 -9 -9 -9 -9 -9 -9 -9 -9 -9 -9 -9 -9 -9 -9 -9 -9 -9 -9 -9 -9 -9 -8 -8 -8 -8
-10 -10 -10 -10 -10 -10 -10 -10 -10 -10 -10 -10 -10 -10 -10 -10 -10 -10 -10 -10 -10 -10 -9 -9 -9 -9 -9 -9 -9 -9 -9 -9 -9 -9 -9 -9 -9 -9 -9 -9 -9 -9 -9 -9 -9 -9 -9 -9 -9 -9 -9 -9 -9 -9 -9 -9 -9 -9 -9 -9 -9 -9 -9 -9 -9 -8 -8 -8 -8
-10 -10 -10 -10 -10 -10 -10 -10 -10 -10 -10 -10 -10 -10 -10 -10 -10 -10 -10 -10 -10 -9 -9 -9 -9 -9 -9 -9 -9 -9 -9 -9 -9 -9 -9 -9 -9 -9 -9 -9 -9 -9 -9 -9 -9 -9 -9 -9 -9 -9 -9 -9 -9 -9 -9 -9 -9 -9 -9 -9 -9 -9 -9 -9 -9 -8 -8 -8 -8
-10 -10 -10 -10 -10 -10 -10 -10 -10 -10 -10 -10 -10 -10 -10 -10 -10 -10 -10 -10 -9 -9 -9 -9 -9 -9 -9 -9 -9 -9 -9 -9 -9 -9 -9 -9 -9 -9 -9 -9 -9 -9 -9 -9 -9 -9 -9 -9 -9 -9 -9 -9 -9 -9 -9 -9 -9 -9 -9 -9 -9 -9 -9 -9 -8 -8 -8 -8 -8
-10 -10 -10 -10 -10 -10 -10 -10 -10 -10 -10 -10 -10 -10 -10 -10 -10 -10 -10 -9 -9 -9 -9 -9 -9 -9 -9 -9 -9 -9 -9 -9 -9 -9 -9 -9 -9 -9 -9 -9 -9 -9 -9 -9 -9 -9 -9 -9 -9 -9 -9 -9 -9 -9 -9 -9 -9 -9 -9 -9 -9 -9 -9 -8 -8 -8 -8 -8 -8
-10 -10 -10 -10 -10 -10 -10 -10 -10 -10 -10 -10 -10 -10 -10 -10 -10 -10 -9 -9 -9 -9 -9 -9 -9 -9 -9 -9 -9 -9 -9 -9 -9 -9 -9 -9 -9 -9 -9 -9 -9 -9 -9 -9 -9 -9 -9 -9 -9 -9 -9 -9 -9 -9 -9 -9 -9 -9 -9 -9 -9 -9 -9 -8 -8 -8 -8 -8 -7
-10 -10 -10 -10 -10 -10 -10 -10 -10 -10 -10 -10 -10 -10 -10 -10 -9 -9 -9 -9 -9 -9 -9 -9 -9 -9 -9 -9 -9 -9 -9 -9 -9 -9 -9 -9 -9 -9 -9 -9 -9 -9 -9 -9 -9 -9 -9 -9 -9 -9 -9 -9 -9 -9 -9 -9 -9 -9 -9 -9 -9 -9 -8 -8 -8 -8 -7 -7 -7
-10 -10 -10 -10 -10 -10 -10 -10 -10 -10 -10 -9 -9 -10 -9 -9 -9 -9 -9 -9 -9 -9 -9 -9 -9 -9 -9 -9 -9 -9 -9 -9 -9 -9 -9 -9 -9 -9 -9 -9 -9 -9 -9 -9 -9 -9 -9 -9 -9 -9 -9 -9 -9 -9 -9 -9 -9 -9 -9 -9 -9 -8 -8 -8 -7 -7 -7 -6 -6
-10 -10 -10 -10 -10 -10 -10 -10 -10 -10 -9 -9 -9 -9 -9 -9 -9 -9 -9 -9 -9 -9 -9 -9 -9 -9 -9 -9 -9 -9 -9 -9 -9 -9 -9 -9 -9 -9 -9 -9 -9 -9 -9 -9 -9 -9 -9 -9 -9 -9 -9 -9 -9 -9 -9 -9 -9 -9 -8 -8 -8 -8 -8 -7 -7 -6 -6 -6 -5
-10 -10 -10 -10 -10 -10 -10 -10 -10 -10 -9 -9 -9 -9 -9 -9 -9 -9 -9 -9 -9 -9 -9 -9 -10 -9 -9 -9 -9 -9 -9 -9 -9 -9 -9 -9 -9 -9 -9 -9 -9 -9 -9 -9 -9 -9 -9 -9 -9 -9 -9 -9 -9 -9 -8 -8 -8 -8 -8 -8 -8 -8 -7 -7 -6 -6 -6 -5 -5
-10 -10 -10 -10 -10 -10 -10 -10 -10 -10 -9 -10 -9 -9 -9 -9 -9 -9 -9 -9 -9 -9 -9 -9 -9 -9 -9 -9 -9 -9 -9 -9 -9 -9 -9 -9 -9 -9 -9 -9 -9 -9 -9 -9 -9 -9 -9 -9 -9 -9 -8 -8 -8 -8 -8 -8 -8 -8 -8 -7 -7 -7 -6 -6 -6 -5 -5 -5 -5
-10 -10 -10 -10 -10 -10 -10 -10 -10 -10 -10 -9 -9 -9 -9 -9 -9 -9 -9 -9 -9 -9 -9 -9 -9 -9 -9 -9 -9 -9 -9 -9 -9 -9 -9 -9 -9 -9 -9 -9 -9 -9 -9 -9 -9 -8 -8 -8 -8 -8 -8 -7 -7 -7 -7 -7 -7 -7 -7 -7 -6 -6 -6 -5 -5 -5 -5 -5 -4
-10 -10 -10 -10 -10 -9 -9 -9 -9 -9 -9 -9 -9 -9 -9 -9 -9 -9 -9 -9 -9 -9 -9 -9 -9 -9 -9 -9 -9 -9 -9 -9 -9 -9 -9 -9 -9 -9 -9 -9 -8 -8 -8 -8 -8 -7 -7 -7 -7 -7 -7 -6 -6 -6 -6 -6 -6 -6 -6 -6 -5 -5 -5 -5 -5 -5 -5 -5 -5
-10 -10 -10 -10 -9 -9 -9 -9 -9 -9 -9 -9 -9 -9 -9 -9 -9 -9 -9 -9 -9 -9 -9 -9 -9 -9 -9 -9 -9 -9 -9 -9 -9 -9 -9 -9 -9 -9 -8 -8 -8 -8 -7 -7 -6 -6 -6 -6 -6 -6 -6 -6 -6 -6 -6 -5 -5 -5 -5 -6 -6 -6 -6 -5 -5 -5 -5 -5 -5
-10 -10 -10 -9 -9 -9 -9 -9 -9 -9 -9 -9 -9 -9 -9 -9 -9 -9 -9 -9 -9 -9 -9 -9 -9 -9 -9 -9 -9 -9 -9 -9 -8 -8 -8 -8 -8 -8 -8 -8 -8 -7 -6 -6 -6 -6 -6 -6 -6 -6 -6 -6 -6 -6 -6 -6 -6 -6 -6 -6 -6 -6 -6 -6 -5 -5 -5 -5 -5
-10 -9 -9 -9 -9 -9 -9 -9 -9 -9 -9 -9 -9 -9 -9 -9 -9 -9 -9 -9 -9 -9 -9 -9 -9 -9 -9 -9 -9 -8 -8 -8 -8 -8 -8 -8 -8 -8 -8 -7 -7 -6 -5 -5 -5 -6 -6 -6 -7 -7 -7 -7 -7 -7 -7 -7 -7 -7 -7 -7 -6 -6 -6 -6 -6 -6 -6 -6 -6
-9 -9 -9 -9 -9 -9 -9 -9 -9 -9 -9 -9 -9 -9 -9 -9 -9 -9 -9 -9 -9 -9 -9 -9 -9 -9 -9 -9 -8 -8 -8 -8 -8 -8 -8 -8 -8 -8 -8 -7 -7 -6 -5 -5 -5 -5 -6 -6 -7 -7 -7 -7 -7 -7 -7 -8 -8 -7 -7 -7 -7 -6 -6 -6 -6 -6 -6 -6 -6
-9 -9 -9 -9 -9 -9 -9 -9 -9 -9 -9 -9 -9 -9 -9 -9 -9 -9 -9 -9 -9 -9 -9 -9 -9 -9 -9 -8 -8 -8 -8 -8 -8 -8 -8 -8 -8 -8 -8 -7 -7 -6 -5 -5 -5 -5 -5 -6 -7 -7 -7 -7 -7 -7 -8 -8 -8 -8 -8 -7 -7 -7 -6 -6 -6 -6 -6 -6 -6
-9 -9 -9 -9 -9 -9 -9 -9 -9 -9 -9 -9 -9 -9 -9 -9 -9 -9 -9 -9 -9 -9 -9 -9 -9 -9 -9 -8 -8 -8 -8 -8 -8 -8 -8 -8 -8 -8 -8 -7 -7 -6 -5 -5 -5 -5 -5 -6 -6 -7 -7 -7 -7 -7 -8 -8 -8 -8 -8 -8 -7 -7 -7 -7 -6 -6 -6 -6 -5
-9 -9 -9 -9 -9 -9 -9 -9 -9 -9 -9 -8 -9 -9 -9 -9 -9 -9 -9 -9 -9 -9 -9 -9 -9 -9 -9 -8 -8 -8 -8 -8 -8 -8 -8 -8 -8 -8 -8 -7 -7 -6 -5 -5 -5 -5 -5 -5 -6 -7 -7 -7 -7 -8 -8 -8 -8 -8 -8 -8 -8 -8 -8 -8 -7 -7 -6 -6 -5
-9 -9 -9 -9 -9 -9 -9 -8 -8 -8 -9 -9 -9 -9 -9 -9 -9 -9 -9 -9 -9 -9 -9 -9 -9 -9 -9 -9 -8 -8 -8 -8 -8 -8 -8 -8 -8 -7 -7 -7 -7 -6 -5 -5 -5 -5 -5 -5 -6 -6 -7 -7 -7 -8 -8 -8 -8 -8 -8 -8 -8 -8 -8 -8 -8 -7 -7 -6 -6
-9 -9 -9 -9 -9 -9 -8 -8 -8 -9 -9 -9 -9 -9 -9 -9 -9 -9 -9 -9 -9 -9 -9 -9 -9 -9 -9 -9 -9 -8 -8 -8 -8 -8 -8 -7 -7 -7 -7 -7 -7 -6 -5 -5 -5 -5 -5 -5 -6 -6 -7 -7 -7 -8 -8 -8 -8 -8 -8 -8 -8 -8 -8 -8 -8 -8 -8 -7 -7
-9 -9 -9 -9 -9 -8 -8 -8 -9 -9 -9 -9 -9 -9 -9 -9 -8 -8 -8 -9 -9 -9 -9 -9 -9 -9 -9 -9 -9 -8 -8 -8 -8 -8 -8 -7 -7 -7 -7 -7 -7 -6 -5 -5 -5 -5 -5 -5 -6 -6 -7 -7 -8 -8 -8 -8 -8 -8 -8 -8 -8 -8 -8 -8 -8 -8 -8 -8 -7
-9 -8 -8 -9 -8 -8 -8 -9 -9 -9 -9 -9 -9 -9 -9 -9 -8 -8 -8 -9 -9 -9 -9 -9 -9 -9 -9 -9 -9 -8 -8 -8 -8 -8 -8 -8 -7 -7 -7 -7 -7 -6 -5 -5 -5 -5 -6 -6 -6 -6 -7 -7 -8 -8 -8 -8 -8 -8 -8 -9 -8 -8 -8 -8 -8 -8 -8 -8 -8
-9 -8 -8 -8 -8 -8 -8 -8 -9 -9 -9 -9 -9 -9 -9 -9 -9 -8 -8 -9 -9 -9 -9 -9 -9 -9 -9 -9 -9 -8 -8 -8 -8 -8 -8 -8 -7 -7 -7 -7 -7 -6 -5 -5 -5 -6 -6 -6 -6 -6 -7 -7 -7 -8 -8 -8 -8 -8 -9 -9 -9 -8 -8 -8 -8 -8 -8 -8 -8
-8 -8 -8 -8 -8 -8 -8 -8 -9 -9 -9 -9 -9 -9 -9 -9 -8 -8 -8 -9 -9 -8 -8 -9 -9 -9 -9 -9 -9 -8 -8 -8 -8 -8 -8 -8 -7 -7 -7 -7 -7 -6 -5 -5 -5 -6 -6 -6 -6 -7 -7 -7 -7 -7 -8 -8 -8 -8 -8 -9 -9 -8 -8 -8 -8 -8 -8 -8 -8
-8 -8 -8 -8 -8 -8 -8 -8 -9 -9 -9 -9 -9 -9 -9 -8 -8 -8 -8 -8 -8 -8 -9 -9 -9 -9 -9 -9 -9 -9 -8 -8 -8 -8 -8 -8 -7 -7 -7 -7 -7 -6 -5 -5 -5 -5 -6 -6 -7 -7 -7 -7 -7 -7 -7 -8 -8 -8 -8 -8 -8 -8 -8 -8 -8 -8 -8 -7 -7
-8 -8 -8 -8 -8 -8 -8 -8 -9 -9 -9 -9 -9 -8 -8 -8 -8 -8 -8 -9 -8 -8 -8 -9 -9 -9 -9 -9 -9 -9 -8 -8 -8 -8 -8 -8 -7 -7 -7 -7 -6 -6 -6 -5 -5 -5 -6 -6 -7 -7 -7 -8 -8 -8 -8 -8 -8 -8 -8 -8 -8 -8 -8 -8 -8 -8 -8 -7 -7
-8 -8 -8 -8 -8 -8 -8 -9 -9 -9 -9 -9 -9 -8 -8 -8 -8 -8 -9 -9 -8 -8 -8 -9 -9 -9 -8 -8 -8 -8 -8 -8 -8 -8 -8 -8 -8 -7 -7 -7 -6 -6 -6 -5 -5 -5 -6 -6 -7 -7 -7 -8 -8 -8 -8 -8 -8 -8 -8 -8 -8 -8 -8 -8 -8 -8 -8 -8 -8
-8 -8 -8 -8 -8 -8 -8 -9 -9 -9 -9 -9 -9 -9 -8 -8 -8 -8 -8 -8 -8 -8 -8 -8 -9 -8 -8 -8 -8 -8 -8 -8 -8 -8 -8 -8 -8 -7 -7 -7 -6 -6 -6 -5 -5 -5 -6 -6 -6 -7 -7 -7 -7 -8 -8 -8 -8 -8 -9 -9 -9 -9 -9 -9 -9 -9 -8 -8 -8
-8 -8 -8 -8 -8 -8 -9 -9 -9 -9 -9 -9 -9 -9 -9 -9 -8 -8 -8 -8 -8 -8 -8 -8 -8 -8 -8 -8 -8 -8 -8 -8 -8 -8 -8 -8 -8 -8 -7 -7 -6 -6 -6 -5 -5 -5 -5 -6 -6 -7 -7 -7 -7 -8 -8 -8 -8 -9 -9 -9 -9 -9 -9 -9 -9 -9 -9 -9 -9
-8 -8 -8 -8 -8 -8 -9 -9 -9 -9 -9 -9 -9 -9 -9 -9 -8 -8 -8 -8 -8 -8 -8 -8 -8 -8 -8 -8 -8 -8 -7 -7 -7 -7 -7 -8 -8 -8 -7 -7 -7 -6 -6 -5 -5 -5 -5 -6 -6 -7 -7 -7 -7 -8 -8 -8 -8 -9 -9 -9 -9 -9 -9 -9 -9 -9 -9 -9 -9
-8 -8 -8 -8 -8 -8 -9 -9 -9 -9 -9 -9 -9 -9 -9 -9 -9 -8 -8 -8 -8 -8 -8 -8 -8 -8 -8 -8 -8 -7 -7 -7 -7 -7 -7 -7 -8 -8 -7 -7 -7 -7 -6 -6 -5 -5 -5 -5 -6 -6 -7 -7 -7 -7 -8 -8 -9 -9 -9 -9 -9 -10 -10 -10 -9 -9 -9 -10 -9
-8 -8 -8 -8 -8 -8 -8 -9 -9 -9 -9 -9 -9 -9 -9 -9 -8 -8 -8 -8 -8 -8 -8 -8 -8 -8 -8 -8 -8 -7 -7 -7 -7 -7 -7 -7 -7 -7 -7 -7 -7 -7 -7 -6 -6 -5 -5 -5 -5 -6 -7 -7 -7 -7 -8 -8 -8 -9 -9 -9 -10 -10 -10 -10 -10 -10 -10 -10 -10
-8 -8 -8 -8 -8 -8 -8 -9 -9 -9 -9 -9 -9 -9 -9 -9 -8 -8 -8 -8 -8 -8 -8 -8 -8 -8 -8 -8 -8 -7 -7 -7 -7 -7 -7 -7 -7 -7 -7 -7 -7 -7 -7 -7 -6 -5 -5 -5 -5 -6 -6 -7 -7 -7 -7 -8 -8 -9 -9 -9 -10 -10 -10 -10 -10 -10 -10 -10 -10
Height
880 878 877 876 875 873 872 871 869 868 866 865 863 861 859 858 856 855 853 852 850 848 846 845 843 841 839 838 836 834 832 830 828 826 824 822 821 820 818 817 816 814 813 811 810 808 807 806 804 803 801 800 798 798 797 796 794 793 792 791 790 788 787 786 785 783 783 782 781
880 878 878 876 875 873 872 871 869 868 866 865 863 861 860 858 856 855 853 852 850 848 846 844 843 841 838 837 835 833 832 829 827 825 823 822 821 819 818 816 815 813 812 810 808 807 806 804 803 801 800 798 797 796 795 794 793 792 791 789 788 787 786 785 783 783 781 780 779
879 878 877 876 874 873 872 870 869 868 866 864 863 862 860 858 857 855 853 852 850 848 846 844 842 840 838 836 835 833 831 829 827 825 823 821 820 818 817 815 813 812 810 809 807 806 804 803 802 800 798 797 796 795 794 793 792 791 789 788 787 786 785 784 783 781 780 779 778
879 878 877 875 874 873 872 871 869 868 866 864 863 861 860 858 857 855 853 851 849 848 846 844 842 840 838 836 834 833 831 828 826 824 823 821 819 817 815 814 812 810 809 807 806 804 803 802 800 799 797 796 795 794 793 792 791 789 788 787 786 785 784 783 781 780 779 778 777
879 878 877 875 874 873 872 871 869 867 866 864 863 861 860 858 856 855 853 851 849 848 845 843 842 840 838 836 834 832 829 828 826 824 822 819 818 816 814 812 811 809 808 806 804 803 801 800 798 797 796 794 793 792 791 790 789 788 787 786 785 784 783 782 780 779 778 777 775
879 878 877 875 874 873 872 870 869 867 866 864 863 861 859 858 856 854 853 851 849 847 845 843 842 840 838 835 833 831 828 826 824 823 820 818 816 814 813 811 809 808 806 804 803 801 800 798 797 796 794 793 792 791 790 789 788 786 785 784 783 783 781 780 779 778 777 775 774
879 878 876 875 874 873 872 870 868 867 866 864 862 861 859 858 856 854 853 851 848 847 845 843 841 839 837 834 832 830 828 825 823 821 819 817 815 813 811 809 808 806 804 803 801 799 798 797 796 794 793 792 790 789 788 787 786 785 784 783 782 781 780 778 777 776 775 773 772
879 878 877 875 874 873 871 870 868 867 865 864 862 860 859 857 856 854 852 850 848 847 845 843 841 838 836 833 831 828 826 824 822 819 817 815 813 811 809 808 806 804 803 801 799 798 797 795 794 793 791 790 789 788 786 786 784 783 782 781 780 779 778 777 776 775 773 772 770
879 878 877 875 874 873 871 870 868 867 865 863 862 860 859 857 855 853 852 850 848 846 844 842 840 838 835 832 830 828 825 823 820 818 816 814 812 810 808 806 804 802 800 799 798 796 795 793 792 791 790 789 787 786 784 783 783 782 780 779 778 777 776 775 774 773 772 771 769
879 878 877 875 874 873 871 869 868 866 865 863 862 860 859 857 855 853 852 850 848 846 844 842 839 836 833 831 828 826 824 821 819 817 815 813 811 808 806 804 802 800 798 797 796 794 793 792 790 789 788 787 785 784 783 782 781 780 779 778 777 775 774 773 772 771 770 769 768
880 878 877 876 874 873 871 869 868 866 864 863 862 860 858 857 855 853 852 850 848 845 843 840 838 835 833 830 828 825 823 820 818 816 813 811 809 806 804 802 800 798 797 795 794 792 791 789 788 787 786 785 783 782 781 780 779 778 777 776 775 774 772 771 770 770 769 768 768
880 878 877 876 874 873 871 869 868 866 864 863 861 859 858 856 855 853 851 849 847 844 842 839 837 834 832 829 827 824 822 820 817 815 813 810 807 804 802 800 798 796 794 793 792 790 789 787 786 784 783 782 781 780 779 778 777 776 775 774 773 772 771 769 769 768 768 767 767
880 879 877 876 874 873 871 869 867 866 864 863 861 859 858 856 854 853 850 848 846 843 841 838 836 834 832 829 826 824 821 819 816 814 811 808 805 803 800 798 796 794 792 790 789 788 786 785 783 782 781 780 779 778 777 776 776 775 774 773 772 771 770 769 768 768 767 766 766
880 879 878 876 874 873 871 869 867 866 864 862 861 859 858 856 854 852 850 848 845 843 840 838 836 833 831 829 826 823 821 818 815 812 809 806 803 801 798 796 794 792 790 788 787 785 784 782 781 780 778 777 776 776 775 774 774 773 772 771 770 769 769 768 768 767 766 766 765
880 879 878 876 874 872 871 869 867 865 864 862 861 859 858 856 853 852 849 847 845 843 840 838 835 833 831 828 825 823 820 817 814 811 808 804 801 799 796 794 792 789 788 786 784 783 781 780 779 778 776 775 774 773 773 773 772 771 771 770 769 769 768 768 767 767 766 765 764
880 879 877 876 874 872 870 869 867 865 864 862 861 859 857 855 853 851 849 847 844 842 840 838 835 832 830 827 824 822 819 816 813 809 806 803 799 797 794 792 790 787 785 783 781 780 778 778 777 775 774 773 772 771 771 771 770 770 769 769 768 768 768 767 767 766 766 765 764
880 879 877 875 874 872 870 868 867 865 863 862 860 859 857 854 853 851 849 847 844 842 839 837 835 832 829 826 824 821 818 814 812 808 805 801 798 795 793 790 788 786 783 781 779 777 776 774 773 773 772 772 771 770 769 769 768 768 768 768 768 768 767 767 767 766 766 765 765
880 878 877 875 873 872 870 868 867 865 863 862 860 858 856 854 852 850 848 846 844 842 839 837 834 832 829 826 823 820 817 814 811 808 804 800 796 794 792 789 787 784 781 779 777 775 773 772 771 770 770 770 769 768 768 767 767 767 768 768 768 768 768 768 767 767 766 765 765
880 878 877 875 873 871 870 868 867 865 863 861 859 858 855 853 852 850 848 846 844 842 839 837 834 831 828 826 823 820 817 814 811 807 803 799 796 793 791 789 786 783 780 778 776 774 773 771 770 769 769 769 768 768 768 767 767 768 768 768 768 768 768 768 768 767 766 765 764
880 878 876 875 873 871 870 868 867 865 863 861 859 857 855 853 852 850 848 846 844 842 839 837 834 831 828 825 822 820 817 814 811 808 804 800 797 793 791 788 786 783 780 778 777 776 774 772 771 770 770 770 769 769 768 768 768 769 769 769 769 769 768 768 767 766 766 765 764
880 878 876 875 873 871 870 868 867 864 862 860 858 856 855 853 852 850 848 846 844 841 839 836 834 831 828 825 823 820 817 814 811 808 805 802 799 795 792 789 786 783 782 781 780 778 776 774 773 772 772 771 771 770 770 770 770 770 770 770 769 769 768 768 767 767 766 765 764
879 878 876 874 873 871 870 868 866 864 862 860 858 856 854 853 851 850 848 846 843 841 839 837 834 831 829 826 823 821 818 815 812 809 806 804 801 798 795 791 788 785 784 783 782 780 779 777 776 775 774 773 773 773 773 772 772 771 771 770 770 769 769 768 768 767 766 765 764
879 878 876 874 873 871 870 868 866 864 862 859 858 856 854 853 851 849 848 846 843 841 839 837 834 832 829 827 824 822 819 815 812 809 807 805 803 800 797 794 791 788 787 786 784 782 781 780 779 778 777 776 776 775 775 774 773 773 772 771 771 770 769 769 768 767 766 765 764
879 878 876 874 873 871 869 868 865 863 861 859 858 856 854 853 851 849 847 845 843 841 839 837 835 832 830 827 825 823 820 816 813 810 807 805 803 802 799 797 793 792 791 789 787 785 783 782 781 780 779 779 778 778 777 776 775 774 773 772 772 771 770 769 768 767 766 765 764
879 878 876 874 873 871 869 867 865 863 862 860 858 856 854 852 850 848 847 845 843 841 839 837 835 833 830 828 825 823 820 818 814 811 808 806 804 803 801 798 796 795 794 792 789 788 786 785 783 782 781 780 779 778 778 776 775 775 774 773 773 772 771 770 769 768 766 765 764
879 877 876 874 873 871 869 867 865 863 862 860 858 856 853 852 850 848 847 845 843 841 839 838 835 833 831 828 826 823 821 818 816 813 810 808 806 804 803 800 799 798 796 794 792 790 788 787 785 783 782 780 779 778 778 777 777 776 775 775 774 773 773 771 770 768 767 766 764
879 877 876 874 873 871 869 868 866 864 862 860 858 856 853 852 850 848 846 845 843 842 840 838 836 833 831 829 827 824 822 820 817 814 812 809 808 806 804 803 801 800 798 796 794 792 790 788 787 786 784 782 781 780 780 779 778 778 777 776 776 775 774 773 771 770 768 767 766
879 877 876 874 873 871 869 868 866 864 862 860 858 856 854 852 850 848 846 845 843 842 840 838 836 834 832 830 828 825 823 821 818 816 813 811 809 808 806 805 803 802 800 798 795 794 792 791 789 788 787 785 784 783 783 782 781 780 779 778 778 777 775 774 773 772 770 769 767
879 877 876 874 873 871 869 868 866 864 862 860 858 856 854 852 850 848 846 845 843 842 840 839 837 835 833 830 828 826 824 822 820 818 815 813 810 808 807 806 805 804 802 799 798 796 794 793 792 790 789 788 787 786 785 784 783 782 781 780 779 778 777 776 775 773 772 771 769
879 877 876 874 873 871 869 868 866 864 862 860 858 856 854 852 850 848 847 845 844 843 842 840 838 836 833 832 829 827 825 823 821 819 817 814 812 810 808 807 806 805 803 801 799 798 797 795 794 793 791 790 788 787 787 786 785 784 783 782 781 780 778 777 776 774 773 772 770
879 877 875 874 873 871 869 868 866 864 862 860 858 856 854 852 850 849 848 846 845 843 842 840 838 836 834 832 830 828 826 824 822 820 818 816 814 812 809 808 806 805 804 802 800 800 798 797 796 795 793 792 790 789 788 787 786 785 784 783 782 781 779 778 776 775 773 772 770
879 877 875 874 873 871 869 868 866 864 862 860 858 856 854 853 851 850 848 847 845 844 842 840 838 837 835 833 831 829 827 825 823 821 819 818 815 813 811 809 807 806 805 803 801 801 800 799 798 797 795 794 792 791 789 788 788 787 785 784 783 782 780 779 777 775 774 772 771
878 877 876 874 873 871 869 868 866 864 862 860 858 857 855 853 852 850 848 847 846 844 843 841 839 837 835 833 832 830 828 826 824 823 821 819 817 814 812 810 808 807 806 804 802 801 801 800 799 798 797 796 794 793 791 790 789 788 786 785 783 782 781 779 778 776 774 773 771
878 877 875 874 873 871 869 868 866 864 862 860 858 857 855 853 852 850 849 848 846 845 843 842 840 838 836 834 833 831 829 827 825 823 822 819 818 816 814 812 809 808 807 805 803 802 801 801 800 799 798 797 795 794 793 791 790 789 787 786 784 783 781 780 778 777 775 773 772
878 877 875 874 873 871 869 868 866 864 862 860 858 857 855 854 852 851 850 848 847 845 844 842 840 838 837 835 833 832 830 828 826 824 823 820 818 817 815 813 811 809 808 806 803 802 801 801 800 799 798 797 795 794 793 792 791 790 788 787 785 784 782 781 779 778 776 775 773
878 877 875 874 873 871 869 868 866 864 862 860 858 857 855 854 853 851 850 849 847 846 844 842 840 838 837 835 833 832 830 829 827 825 823 821 819 818 816 814 812 810 808 807 805 803 802 801 800 799 798 797 796 795 794 793 792 791 789 788 787 785 784 782 781 779 778 776 775
878 877 875 874 872 871 869 868 866 864 862 860 859 857 856 854 853 852 850 849 848 846 844 843 841 839 837 836 834 833 831 829 828 826 824 822 820 819 817 815 813 811 809 808 806 804 803 801 801 800 799 798 797 796 795 794 793 792 790 789 788 786 785 783 782 781 779 778 776
878 877 875 874 873 871 869 868 866 864 863 861 859 858 856 855 853 852 851 849 848 846 845 843 842 840 838 836 835 833 832 830 828 827 825 823 821 820 818 816 814 812 810 809 808 805 803 803 802 800 799 798 798 797 796 795 793 792 791 790 788 787 786 784 783 782 780 779 778
878 877 876 874 873 871 869 868 866 864 863 861 859 858 856 855 853 852 851 850 848 847 845 844 842 840 839 837 835 834 832 831 829 828 826 824 823 821 819 818 815 814 812 811 809 807 805 804 803 801 800 799 798 798 797 796 794 793 792 790 789 787 786 785 784 782 781 779 778
878 877 876 874 873 871 869 868 866 865 863 861 860 858 856 855 854 853 851 850 849 848 846 844 843 841 839 838 836 834 833 831 830 828 827 825 823 822 820 818 817 815 814 813 811 809 807 806 804 803 801 799 799 798 797 796 795 793 792 791 789 788 786 785 784 783 782 780 778
878 877 876 874 873 871 869 868 866 865 863 862 860 858 857 855 854 853 851 850 849 848 846 845 843 842 840 838 837 835 833 832 830 829 828 826 824 823 821 820 818 816 815 813 812 811 809 807 805 804 802 800 799 798 798 797 795 794 793 791 790 788 787 786 784 783 782 780 779
Wind_Speed
27 26 24 22 20 20 20 19 18 19 20 20 20 21 21 20 20 20 20 20 21 21 22 23 23 24 25 27 28 28 29 30 31 31 30 27 24 23 24 25 26 26 26 26 26 26 26 25 25 23 22 20 20 20 20 20 21 21 22 22 22 21 21 21 21 21 21 21 21
27 26 25 23 22 22 20 19 19 20 21 21 20 20 20 20 20 20 21 21 22 22 23 23 24 25 26 27 27 28 29 30 31 30 28 26 25 25 26 27 27 27 26 26 26 25 24 24 24 24 22 21 20 20 20 21 21 21 22 22 21 20 20 19 20 20 21 21 20
27 27 26 25 24 23 21 19 20 21 22 21 20 20 19 20 20 21 21 22 23 24 24 24 25 26 26 26 27 28 29 29 29 29 27 27 27 27 27 27 27 27 27 27 26 25 24 24 24 23 22 22 21 21 21 21 21 21 21 21 20 19 19 19 20 20 20 20 20
27 27 26 25 25 23 21 19 21 22 22 21 20 20 20 20 20 21 22 23 24 24 25 25 26 25 26 26 28 29 29 29 28 27 27 27 28 28 28 28 28 28 28 28 27 26 25 24 23 22 22 22 21 21 21 21 20 20 20 20 19 19 19 19 20 20 20 20 20
27 27 26 25 24 22 21 20 22 22 22 21 20 20 21 21 22 22 23 24 24 25 25 25 25 25 26 27 29 29 29 28 28 27 27 28 28 28 27 27 27 27 28 27 27 26 25 24 22 21 20 21 21 20 20 20 21 20 20 20 19 19 20 20 20 20 20 20 21
27 26 26 24 23 22 21 22 22 23 22 21 21 22 22 23 23 23 24 25 25 25 25 25 24 25 27 28 29 29 28 28 27 27 27 27 27 28 27 27 27 27 27 27 27 26 25 24 22 21 20 19 20 20 20 20 21 21 21 21 20 20 21 21 21 21 21 21 22
26 26 25 24 23 22 22 23 23 23 22 21 21 23 24 24 24 25 26 26 25 25 24 24 25 26 28 29 29 28 28 28 28 28 27 27 27 28 28 27 27 27 27 27 26 26 25 23 23 22 21 20 20 20 20 20 21 22 22 22 22 22 22 23 23 22 22 23 24
25 25 24 23 22 22 23 23 23 22 22 21 22 23 24 25 25 26 27 26 24 24 24 25 26 27 29 29 29 28 28 28 28 28 28 27 27 28 28 28 28 27 27 27 26 25 24 24 23 22 21 21 20 20 21 22 23 24 24 25 24 23 23 23 23 23 23 24 25
25 25 24 23 23 23 23 23 23 22 22 22 23 24 24 24 25 26 26 25 24 24 25 25 27 28 29 29 29 28 28 28 28 29 28 28 28 28 29 29 28 28 27 27 26 26 25 24 23 22 21 21 21 22 23 24 24 25 26 25 24 24 24 24 24 24 24 24 25
25 24 23 23 23 23 23 23 22 22 22 22 23 24 24 24 25 25 25 24 24 25 26 26 28 29 29 29 28 28 28 29 29 29 30 30 30 30 30 30 29 29 28 27 27 26 26 24 23 22 22 22 23 24 25 25 25 25 25 24 23 24 26 26 25 24 24 24 24
23 23 22 22 23 23 23 23 22 22 21 22 23 24 25 25 25 25 24 24 25 26 27 28 29 29 29 29 29 29 30 30 30 30 31 31 31 32 32 31 30 29 29 29 28 27 26 24 23 23 23 23 24 24 25 25 25 24 24 24 25 26 27 27 26 24 23 23 23
22 22 22 22 22 23 23 23 23 22 22 23 24 24 25 25 25 25 25 26 26 27 28 29 29 29 29 29 30 31 31 32 32 32 32 32 33 33 33 32 30 30 30 29 28 27 26 25 25 25 25 25 24 24 24 24 24 24 24 25 25 26 26 26 25 24 23 22 22
22 22 22 22 23 23 23 24 23 22 22 24 24 24 25 26 26 25 26 27 28 29 29 29 29 29 29 30 31 32 33 33 34 34 34 34 33 33 33 32 31 31 31 30 29 27 26 26 26 26 26 26 24 24 24 24 23 24 24 25 25 25 25 25 24 23 22 21 21
21 22 22 23 23 23 24 24 23 22 23 25 25 25 26 26 26 26 26 28 29 30 30 30 30 30 30 31 32 33 34 34 34 34 34 34 34 34 33 32 32 32 31 31 30 29 28 27 27 27 27 26 25 25 24 23 23 23 24 24 24 24 24 23 22 21 20 19 18
21 22 22 23 23 24 24 24 23 23 24 25 26 26 26 26 26 26 27 29 30 30 30 31 31 31 32 32 33 34 34 35 35 34 34 34 34 34 34 33 34 34 33 32 31 30 29 28 27 27 27 27 26 26 25 24 23 23 23 23 23 23 22 20 19 17 16 16 15
22 23 23 23 24 25 25 25 24 24 25 26 27 27 26 26 27 27 28 30 31 31 31 32 32 32 33 33 34 34 35 35 35 35 35 35 35 35 35 35 35 35 35 34 33 32 31 30 28 27 27 27 26 25 24 23 22 22 22 21 20 19 18 17 15 14 13 13 13
23 24 24 24 25 26 26 25 25 25 26 27 27 27 26 26 27 28 29 30 31 32 32 33 33 33 34 34 35 35 35 35 35 35 35 36 37 37 36 36 36 36 35 35 34 33 32 30 28 26 25 23 22 21 20 19 19 19 18 17 16 14 13 12 12 11 12 12 11
24 24 25 25 25 26 27 27 26 27 27 27 27 26 26 27 28 29 30 31 32 32 33 33 33 34 34 35 35 35 35 35 35 36 37 38 38 38 37 36 36 36 35 35 33 31 29 26 23 20 18 16 15 15 14 15 15 14 13 12 10 10 10 10 10 10 11 11 11
24 25 25 25 26 27 27 27 27 27 27 26 26 26 27 28 29 30 31 32 32 32 33 33 33 34 34 35 35 35 35 35 36 37 39 40 40 39 38 37 36 36 35 33 29 26 23 21 18 15 13 12 11 11 12 12 12 11 10 10 12 13 13 13 13 13 14 15 15
25 25 26 26 26 27 27 27 27 27 26 26 26 27 28 29 30 31 32 32 33 33 33 33 33 34 34 35 35 35 35 35 35 37 39 40 41 41 40 39 38 37 33 28 25 26 26 26 25 23 20 18 17 17 17 17 16 15 16 17 18 19 18 18 18 18 18 19 19
25 25 25 25 26 27 27 27 26 26 26 26 27 28 29 30 30 31 32 32 32 33 33 33 33 34 34 34 34 35 35 35 36 37 38 39 40 41 42 41 40 36 30 25 26 29 31 31 30 29 28 27 26 25 24 22 21 20 21 22 22 22 21 21 20 20 20 20 21
25 25 25 25 25 26 26 26 26 26 26 26 28 29 29 30 31 31 31 32 32 32 32 32 32 33 33 33 33 34 35 36 37 37 37 37 38 40 41 40 39 35 30 26 27 30 32 31 31 30 30 29 29 28 26 24 23 23 23 24 24 23 23 22 21 21 21 21 21
25 25 25 24 25 26 26 26 26 25 26 27 28 29 30 30 31 31 31 32 32 32 32 32 32 31 31 31 32 34 35 36 37 38 38 38 38 39 40 38 36 33 31 31 30 30 30 30 30 29 28 28 28 27 26 26 25 25 26 26 26 25 24 24 23 23 23 23 22
25 25 24 24 25 25 25 26 26 26 26 27 29 30 30 31 31 31 31 31 31 31 31 31 31 31 30 31 32 33 35 36 37 38 39 39 38 38 38 36 33 31 31 32 32 30 28 27 28 28 27 26 25 25 26 27 27 28 28 28 28 27 26 26 25 25 25 25 25
24 24 24 24 24 25 25 26 26 26 27 28 29 30 31 31 31 31 31 31 31 31 31 31 31 30 30 30 31 33 34 34 35 37 38 39 39 38 37 34 31 29 29 31 31 30 28 27 26 26 27 26 26 25 26 28 29 30 30 29 29 29 28 28 27 27 27 27 27
24 24 24 24 24 24 25 25 26 26 27 28 30 31 31 31 31 31 31 31 31 31 31 31 31 29 28 29 31 32 33 33 34 35 37 38 38 38 36 34 30 28 29 31 31 31 29 28 26 26 27 28 27 27 28 29 30 30 30 29 29 29 29 29 29 29 28 28 27
24 24 24 23 23 24 24 25 26 26 27 28 30 31 31 31 31 31 31 31 30 30 30 30 30 29 28 28 30 32 32 33 33 34 35 37 37 36 35 33 30 28 30 32 32 32 31 30 28 27 26 27 28 28 27 28 29 29 30 29 29 29 30 30 30 30 29 29 27
23 23 23 23 23 23 24 25 26 27 28 29 30 30 31 31 31 32 31 31 30 30 30 30 29 28 28 28 29 30 31 31 32 33 34 35 36 36 35 32 29 28 30 33 33 33 33 31 30 28 26 26 27 27 26 26 27 27 28 28 28 29 29 30 30 29 29 29 28
23 23 23 22 23 24 25 25 26 27 28 28 29 30 30 31 31 31 31 31 30 29 29 29 29 29 29 29 29 29 30 30 30 31 32 34 35 35 35 33 29 27 29 32 34 34 34 33 32 30 28 26 27 26 25 25 25 26 26 26 27 27 28 28 29 29 28 29 29
23 23 22 22 23 24 25 25 26 27 28 28 29 30 30 30 30 30 30 30 29 28 28 29 29 29 29 28 28 28 29 29 29 30 31 32 33 34 34 33 30 27 28 31 32 33 34 34 33 32 30 29 29 28 26 25 25 25 25 25 27 28 28 28 29 29 29 29 29
22 22 22 21 22 24 25 25 26 27 28 28 29 30 30 29 30 30 30 29 28 28 28 29 29 28 28 27 27 28 28 28 28 29 29 30 31 33 34 33 31 27 27 29 30 31 32 32 33 33 33 33 32 30 28 26 25 25 25 25 26 27 28 28 29 30 30 30 31
22 22 22 21 22 23 25 25 26 27 28 28 29 29 29 29 29 29 29 28 28 29 29 29 28 28 27 27 27 27 27 27 27 27 28 29 30 31 33 33 32 29 27 27 28 29 30 30 31 32 33 34 34 33 31 28 26 25 26 26 27 27 28 28 29 29 30 31 31
22 22 22 21 22 23 24 25 26 27 27 28 28 28 28 28 28 28 28 28 28 28 28 28 27 27 26 26 26 26 26 26 26 26 27 27 29 30 32 32 32 31 28 26 26 27 28 28 29 29 31 32 33 33 32 30 28 27 27 27 27 28 28 28 28 29 29 29 31
22 22 22 21 22 23 24 25 26 26 27 27 27 27 27 27 27 28 28 27 27 28 28 27 27 26 25 24 25 25 25 25 25 26 26 27 28 29 30 31 32 31 29 27 25 25 26 27 27 28 29 30 32 32 32 31 29 28 28 28 28 28 28 28 28 28 28 28 29
22 22 22 21 22 23 23 24 25 26 26 26 27 26 26 26 27 27 27 26 27 27 27 27 26 26 25 24 24 24 24 24 25 26 26 26 27 28 29 30 30 30 30 30 28 26 25 25 26 28 29 31 32 32 31 30 29 28 27 27 27 27 27 28 28 27 27 27 27
22 22 22 22 22 23 23 24 25 25 26 26 26 26 26 26 26 26 26 26 26 27 27 27 27 26 25 24 23 23 23 24 24 25 26 26 26 27 28 29 29 30 31 33 31 27 24 24 25 27 30 32 33 32 32 31 29 28 27 26 25 25 25 26 26 27 27 27 27
21 21 21 22 22 23 23 23 24 25 25 25 25 25 25 25 25 25 25 25 26 27 27 27 26 26 25 23 23 23 22 22 23 24 25 25 25 26 27 28 29 29 31 32 33 30 26 24 24 26 29 32 32 31 31 30 30 29 27 25 24 23 23 24 24 25 26 26 26
21 21 21 22 22 23 23 23 24 24 24 24 24 24 24 24 24 24 25 24 25 25 26 26 26 25 24 23 22 21 21 21 22 23 24 24 24 24 25 27 27 28 29 29 31 32 30 25 23 25 28 31 31 30 29 29 29 29 27 25 24 23 22 22 22 23 24 25 24
20 21 21 22 22 23 23 23 23 24 23 23 23 23 23 23 23 23 24 23 24 24 24 25 25 25 24 22 22 21 20 20 21 22 23 23 23 23 23 25 26 27 27 27 29 30 30 28 25 24 25 29 29 28 28 28 28 29 28 26 25 23 22 22 21 22 23 24 24
20 20 21 22 22 23 23 23 23 23 22 22 22 22 22 22 22 23 23 22 22 22 23 24 24 24 23 22 22 21 20 20 20 20 21 22 22 22 22 23 24 25 25 25 26 27 28 29 27 25 24 26 27 27 27 27 27 28 28 27 25 23 22 22 21 21 22 23 24
20 20 21 22 23 23 23 23 23 23 22 21 21 21 21 21 22 22 22 22 22 22 22 23 24 24 23 22 22 21 21 20 20 19 20 20 21 21 22 22 23 23 24 24 24 25 26 27 28 26 24 23 25 26 26 26 26 27 28 27 26 23 22 21 21 21 21 22 23
Wind_Direction
356 354 352 350 347 344 342 340 339 339 337 335 333 332 332 330 330 329 328 328 327 325 324 323 322 320 319 320 320 320 320 320 319 319 321 324 325 326 325 322 319 317 315 313 312 311 310 309 306 304 302 301 302 303 304 304 303 302 301 300 298 296 296 297 298 300 302 302 299
354 353 352 349 347 344 343 341 340 339 338 336 334 333 332 332 331 330 329 328 327 325 324 323 321 321 320 319 321 323 322 321 322 324 327 330 330 327 323 320 318 315 313 311 311 310 309 309 307 305 303 302 303 304 305 304 303 301 300 298 297 297 297 299 300 301 301 301 300
353 352 351 349 347 346 344 342 340 339 338 336 335 334 333 333 331 330 329 327 327 326 325 323 322 321 321 322 324 325 324 324 325 327 328 328 325 322 320 318 317 315 313 312 310 309 308 308 308 307 306 305 304 304 304 304 302 300 299 299 299 299 300 300 300 301 301 300 299
352 351 349 347 347 345 343 340 338 338 337 335 335 335 334 333 331 329 328 327 327 327 325 323 323 322 324 325 326 326 325 325 326 326 325 323 321 320 319 318 316 315 314 312 310 309 307 307 307 307 306 305 304 303 302 302 301 299 298 299 299 300 299 299 299 299 299 298 297
351 350 349 347 346 345 342 339 338 337 336 335 335 334 334 333 331 330 330 329 328 326 325 324 324 325 327 327 327 326 325 325 325 324 322 320 319 319 318 318 316 315 314 312 310 308 307 306 305 304 304 303 302 300 299 299 298 297 296 297 297 298 298 297 297 297 297 296 295
350 349 349 348 346 344 341 339 338 337 336 335 334 334 333 333 331 331 330 329 328 328 328 328 328 329 328 327 326 325 325 324 323 322 321 319 319 318 318 317 317 315 314 312 310 308 307 305 304 304 304 302 301 300 298 297 296 294 294 295 296 296 295 295 295 295 294 294 293
350 349 349 348 347 344 342 341 340 338 337 336 335 334 333 333 332 332 331 329 330 331 332 332 331 330 329 328 326 325 323 322 321 320 319 318 318 318 317 317 316 314 312 311 309 308 306 305 305 305 304 303 301 299 297 295 294 294 294 294 295 295 295 294 294 293 293 292 292
351 351 350 349 347 346 344 343 341 340 339 337 336 336 335 334 334 334 334 333 332 333 333 332 331 330 329 328 326 323 322 321 320 320 319 317 316 315 315 315 314 312 311 310 308 308 307 306 305 304 302 301 299 296 294 294 294 293 293 294 295 295 294 293 293 292 292 292 293
352 352 351 351 349 348 346 344 343 342 341 339 339 338 338 337 336 336 335 334 334 334 333 331 330 330 329 327 324 322 321 320 319 319 318 318 316 315 314 314 312 311 310 309 309 309 308 306 304 302 300 298 296 294 294 294 294 294 294 294 295 295 295 294 293 292 292 293 293
353 353 352 351 350 349 348 346 345 344 343 342 342 341 341 340 339 337 335 334 334 333 332 332 331 329 328 326 324 322 321 320 318 318 317 317 315 313 312 311 310 309 309 309 309 308 307 305 302 300 298 295 294 293 294 295 294 293 293 294 295 295 295 295 295 294 294 295 295
353 353 353 352 351 350 349 348 347 346 345 344 344 343 342 342 341 339 336 335 334 333 332 331 331 329 326 323 323 322 321 319 318 317 316 315 313 312 311 309 308 307 307 309 308 308 307 304 301 298 297 296 294 294 294 294 294 293 293 294 294 294 295 297 298 298 297 298 298
354 353 353 352 351 350 349 349 347 346 346 345 344 343 342 342 341 339 337 336 335 333 332 331 329 327 324 323 323 322 321 320 320 319 318 315 313 312 311 310 309 309 308 308 308 307 306 303 301 299 298 297 295 293 292 293 293 293 293 294 294 294 295 297 300 301 302 303 304
354 353 353 352 351 350 350 349 347 346 345 345 344 342 342 341 340 338 337 336 335 333 332 331 329 327 325 325 324 324 323 322 322 321 319 316 315 313 312 311 310 309 309 309 308 307 304 302 301 299 298 297 294 292 292 291 291 292 292 293 294 295 296 299 302 305 308 310 311
354 353 352 351 351 350 349 348 346 345 344 344 343 342 342 340 340 339 337 335 334 334 333 332 331 329 328 326 327 326 325 324 323 321 320 319 317 315 314 313 312 312 311 311 310 309 306 305 303 302 299 298 296 294 293 292 292 291 292 292 294 295 298 301 305 309 313 316 318
353 352 352 351 350 349 348 346 345 344 343 342 342 342 341 341 340 339 337 336 336 335 334 333 332 332 331 330 330 328 327 326 325 324 323 322 319 318 317 317 316 316 315 313 312 310 308 306 304 302 300 298 297 296 295 294 293 292 292 292 293 296 299 304 310 315 318 319 319
353 352 352 350 350 348 346 345 344 343 342 341 341 341 341 340 339 339 339 338 337 337 336 335 333 333 334 334 333 331 330 329 328 326 324 322 321 319 319 319 318 316 315 313 312 310 308 306 303 301 299 298 298 298 297 296 294 293 293 294 295 298 302 308 314 319 321 319 316
353 352 351 350 349 347 345 343 343 343 342 341 342 343 342 339 340 341 341 340 339 339 338 337 336 336 336 336 336 335 332 331 330 328 326 323 321 320 319 319 317 316 315 314 313 311 309 308 306 304 301 300 300 300 300 300 297 297 297 300 302 307 313 319 323 323 321 319 318
352 351 350 349 348 346 344 344 344 343 343 342 342 343 342 341 341 342 343 344 343 341 339 340 340 339 338 338 338 337 334 332 332 331 328 326 323 322 322 322 321 321 320 320 318 318 318 319 319 317 315 313 311 310 311 311 310 310 312 318 329 340 346 348 346 343 343 344 344
351 350 349 348 347 346 346 346 346 345 345 345 343 342 343 343 344 344 345 345 345 343 342 342 342 342 342 341 340 339 337 334 333 332 331 330 329 329 330 331 332 332 333 333 336 341 348 354 360 2 360 356 348 345 347 348 349 351 358 11 22 26 26 24 21 18 16 13 8
349 349 348 348 347 347 347 348 348 348 347 346 345 344 344 345 346 346 346 346 346 345 345 345 345 345 344 343 341 340 339 337 335 334 335 336 337 338 340 342 343 345 349 358 10 19 25 29 34 37 37 35 30 28 28 31 34 38 43 45 44 42 41 39 36 33 28 22 15
349 348 348 348 347 348 348 349 350 349 348 346 346 345 346 346 347 347 346 346 347 348 348 348 347 347 346 344 343 342 341 340 340 340 340 341 343 346 348 350 351 355 5 25 36 37 37 38 41 44 45 45 45 45 46 48 49 50 49 48 45 44 42 40 37 33 28 22 17
350 349 348 348 348 349 350 351 351 350 348 347 346 347 347 347 348 348 348 349 350 350 350 350 349 348 347 345 344 344 344 345 345 346 346 347 349 352 354 356 358 3 16 36 42 40 37 38 41 43 44 45 46 47 47 47 48 47 45 43 41 40 38 35 32 28 23 19 15
350 350 349 349 351 352 353 353 353 351 349 348 348 348 348 348 349 349 350 351 352 353 353 352 351 350 348 347 347 347 348 349 349 350 351 352 354 356 358 1 4 11 22 31 35 36 36 37 38 40 41 42 42 42 42 42 42 41 39 38 36 35 33 31 28 24 20 17 13
351 351 350 350 352 354 355 355 353 351 349 349 349 349 349 349 350 350 352 353 355 355 355 354 353 351 350 349 350 351 352 352 352 352 353 355 357 359 0 2 8 17 24 27 29 32 35 35 36 37 39 39 38 37 37 38 38 38 36 34 32 30 29 27 25 22 19 17 14
352 352 352 353 354 355 356 355 353 352 351 350 350 350 350 350 351 351 353 354 356 357 356 355 354 353 351 350 352 354 355 355 354 354 355 357 359 1 2 4 11 21 27 28 29 31 33 34 34 35 36 37 36 34 34 34 35 35 34 32 29 26 25 23 22 21 20 18 16
353 354 354 355 355 355 355 355 354 353 352 351 351 351 351 352 352 353 354 355 357 357 357 356 355 354 352 352 354 357 358 358 357 357 357 358 360 2 3 4 11 23 31 31 31 32 33 33 33 33 34 36 35 33 31 31 32 33 32 30 27 24 22 19 18 18 19 18 17
354 354 355 355 356 356 355 354 354 353 353 352 352 352 352 353 354 355 355 357 358 358 357 357 356 354 353 353 355 358 359 359 359 360 0 0 1 3 4 5 14 27 35 34 34 34 34 34 33 33 33 35 35 33 30 28 29 29 29 27 25 22 20 18 16 15 15 16 16
355 354 355 355 356 355 355 355 354 354 353 352 353 353 354 355 356 356 357 358 358 358 357 357 356 356 355 355 356 358 0 1 1 2 3 3 3 4 5 6 15 29 39 37 37 36 36 35 35 34 34 34 35 34 31 28 27 26 25 24 22 20 19 17 15 13 11 11 13
355 355 355 355 355 355 355 355 355 354 354 354 354 355 356 357 357 358 358 358 358 357 356 356 356 357 356 357 357 359 2 3 4 4 4 5 4 5 5 6 14 29 41 41 39 38 37 36 35 35 35 35 35 34 32 28 26 24 23 21 20 18 17 15 14 12 9 8 9
356 355 354 355 355 355 355 355 355 355 355 355 356 357 357 358 358 358 358 358 357 356 356 357 357 357 357 358 359 1 3 5 6 6 6 6 5 5 5 5 11 27 43 45 43 40 38 37 36 35 34 35 35 34 32 29 26 24 22 20 19 17 16 14 13 11 9 8 7
357 355 354 354 354 354 354 355 355 355 356 357 358 358 358 358 358 358 358 357 356 356 357 358 358 358 359 0 2 3 5 7 8 8 7 6 6 5 5 4 7 22 40 47 46 43 41 39 36 35 34 34 34 34 32 29 26 23 21 19 18 17 16 14 13 12 10 9 7
357 355 354 354 354 354 354 354 355 356 357 358 359 359 359 359 358 358 359 358 356 356 357 359 359 359 360 2 3 5 7 9 9 8 8 8 7 7 7 5 4 14 32 46 47 45 43 40 38 36 34 34 33 33 31 29 25 22 20 19 18 17 16 15 13 12 11 10 9
357 355 354 354 354 353 354 354 355 357 358 359 0 0 360 359 359 359 359 358 357 357 358 358 358 358 359 1 3 5 7 9 10 10 10 10 10 9 9 7 4 8 21 38 46 46 43 41 39 36 34 33 33 32 31 29 26 23 21 19 18 17 16 15 14 13 12 11 10
358 356 355 354 354 353 353 354 355 357 358 360 1 1 0 359 359 359 358 357 357 357 359 359 359 359 1 3 4 5 7 10 12 12 12 12 12 11 10 9 6 4 11 27 42 46 42 40 38 35 33 32 31 31 30 29 27 25 22 20 19 17 16 15 14 14 13 13 10
358 356 355 354 354 353 353 354 355 357 358 360 0 1 1 360 359 358 357 356 357 358 360 0 0 2 4 7 8 9 10 12 13 13 13 13 12 11 11 11 9 4 6 20 35 42 42 39 37 34 31 29 28 28 28 27 26 24 23 21 19 17 15 14 13 13 13 13 10
358 357 356 355 354 354 353 354 355 356 358 359 359 359 360 359 359 359 357 356 357 359 0 1 2 3 6 8 10 10 11 12 12 13 14 14 13 10 10 12 12 7 6 15 26 35 41 40 37 33 29 27 25 25 25 24 23 22 22 21 19 17 14 12 10 10 11 11 8
359 358 357 355 354 354 354 354 355 356 357 358 358 358 358 358 358 358 358 357 358 359 0 1 2 3 5 7 9 11 13 14 13 13 14 15 13 10 9 12 14 11 7 9 16 25 34 39 37 33 29 26 24 23 22 22 21 20 19 18 18 16 13 10 7 7 7 7 4
360 359 357 356 356 355 355 355 355 356 356 357 358 359 359 359 358 358 358 358 358 358 359 0 1 3 5 7 9 13 15 15 15 15 15 15 14 10 9 12 15 14 10 6 9 17 25 32 35 33 29 26 24 22 20 19 19 19 18 16 15 14 13 10 6 3 2 2 0
360 358 357 357 357 357 356 356 356 356 356 357 358 358 359 358 358 359 0 1 360 358 357 358 0 2 5 7 10 13 14 14 14 15 15 15 14 11 10 12 14 14 12 7 6 10 17 23 28 31 29 26 24 21 19 18 18 17 17 15 13 12 11 9 5 2 359 359 358
359 358 357 357 357 357 357 356 356 356 356 357 357 357 357 358 359 1 3 3 2 360 357 357 360 2 4 6 9 12 12 11 11 13 14 14 14 13 13 13 13 13 11 7 6 8 12 16 21 26 28 25 23 21 19 17 17 17 16 14 12 9 7 6 4 1 358 357 356
360 358 357 356 357 357 357 356 356 356 357 358 358 358 358 359 1 4 6 6 5 1 358 356 358 1 2 4 7 10 11 10 8 8 9 12 14 15 14 12 11 11 10 7 5 7 9 11 15 20 24 24 22 20 18 16 16 16 15 14 12 9 5 3 1 360 358 356 354